Location: Amsterdam
(30.7274°N, 84.4357°W)
Time: 21:24:13
(UTC+00:00)

Tiros 1 despin weight - Pass Details

Date: 23 February 2026
Orbit: 556 x 593 km, 48.2° (Epoch: 9 March)

Event Time Altitude Azimuth Distance (km) Brightness Sun altitude
Rises 23:47:52 0° 320° (NW) 2,731 ? -4.2°
Reaches altitude 10° 23:50:25 10° 334° (NNW) 1,834 ? -4.7°
Maximum altitude 23:53:55 25° 31° (NNE) 1,138 ? -5.5°
Drops below altitude 10° 23:57:24 10° 88° (E) 1,834 ? -6.2°
Enters shadow 23:58:02 - 92° (E) 2,042 ? -6.3°
Sets 23:59:58 0° 101° (ESE) 2,731 - -6.8°
